When you browse on this site, cookies collect data to enhance your experience and personalize the content and advertising you see.
Visit our Privacy Policy to learn more. By continuing to use the site, you agree to this use of cookies and data.
  • In Hungary
  • List of Countries
  • For 7 days
  • Water Temperature
  • Satellite Maps
  • Weather Map
  • News
  • Weather Widgets
  • user-avatar
    Login

    Hourly Weather Ponta Grossa

    Today, 17 November, Saturday

    Time Temperature Precipitation Wind Pressure Humidity
    00:00 +16°C° 0 mm 3 mps 682 mmHg 83%
    01:00 +16°C° 0 mm 3 mps 682 mmHg 85%
    02:00 +16°C° 0 mm 3 mps 682 mmHg 87%
    03:00 +14°C° 0 mm 3 mps 682 mmHg 88%
    04:00 +15°C° 0 mm 2 mps 682 mmHg 88%
    05:00 +15°C° 0 mm 2 mps 682 mmHg 89%
    06:00 +15°C° 0 mm 2 mps 682 mmHg 89%
    07:00 +17°C° 0 mm 2 mps 682 mmHg 79%
    08:00 +19°C° 0 mm 3 mps 683 mmHg 69%
    09:00 +21°C° 0 mm 3 mps 683 mmHg 60%
    10:00 +24°C° 0 mm 3 mps 683 mmHg 56%
    11:00 +26°C° 0 mm 3 mps 683 mmHg 51%
    12:00 +28°C° 0 mm 3 mps 683 mmHg 47%
    13:00 +29°C° 0 mm 3 mps 683 mmHg 48%
    14:00 +29°C° 0 mm 2 mps 682 mmHg 48%
    15:00 +30°C° 0 mm 2 mps 682 mmHg 48%
    16:00 +29°C° 0 mm 2 mps 681 mmHg 54%
    17:00 +27°C° 0 mm 2 mps 681 mmHg 60%
    18:00 +26°C° 0 mm 2 mps 681 mmHg 66%
    19:00 +25°C° 0 mm 2 mps 681 mmHg 71%
    20:00 +23°C° 0 mm 2 mps 681 mmHg 77%
    21:00 +21°C° 0 mm 2 mps 681 mmHg 82%
    22:00 +20°C° 0 mm 2 mps 680 mmHg 85%
    23:00 +20°C° 0 mm 2 mps 680 mmHg 87%

    Tomorrow, 18 November, Sunday

    Time Temperature Precipitation Wind Pressure Humidity
    00:00 +19°C° 0 mm 2 mps 680 mmHg 90%
    01:00 +19°C° 0 mm 2 mps 680 mmHg 90%
    02:00 +19°C° 0 mm 2 mps 679 mmHg 91%
    03:00 +19°C° 0 mm 2 mps 679 mmHg 91%
    04:00 +19°C° 0 mm 2 mps 678 mmHg 90%
    05:00 +20°C° 0 mm 2 mps 678 mmHg 89%
    06:00 +20°C° 0 mm 2 mps 678 mmHg 88%
    07:00 +21°C° 0 mm 3 mps 679 mmHg 83%
    08:00 +24°C° 0 mm 3 mps 679 mmHg 77%
    09:00 +25°C° 0 mm 4 mps 680 mmHg 72%
    10:00 +25°C° 0.2 mm 4 mps 680 mmHg 72%
    11:00 +26°C° 0.2 mm 3 mps 679 mmHg 73%
    12:00 +26°C° 0.2 mm 3 mps 679 mmHg 73%
    13:00 +26°C° 1.8 mm 3 mps 679 mmHg 78%
    14:00 +25°C° 1.8 mm 2 mps 679 mmHg 83%
    15:00 +25°C° 1.8 mm 2 mps 678 mmHg 87%
    16:00 +24°C° 2.3 mm 2 mps 678 mmHg 90%
    17:00 +23°C° 2.3 mm 1 mps 678 mmHg 93%
    18:00 +22°C° 2.3 mm 1 mps 678 mmHg 95%
    19:00 +22°C° 0.2 mm 1 mps 679 mmHg 96%
    20:00 +21°C° 0.2 mm 1 mps 679 mmHg 97%
    21:00 +21°C° 0.2 mm 1 mps 679 mmHg 98%
    22:00 +20°C° 0 mm 1 mps 679 mmHg 98%
    23:00 +20°C° 0 mm 1 mps 679 mmHg 98%

    Day after tomorrow, 19 November, Monday

    Time Temperature Precipitation Wind Pressure Humidity
    00:00 +20°C° 0 mm 1 mps 679 mmHg 97%
    01:00 +19°C° 0.1 mm 2 mps 679 mmHg 97%
    02:00 +19°C° 0.1 mm 2 mps 679 mmHg 97%
    03:00 +19°C° 0.1 mm 2 mps 678 mmHg 97%
    04:00 +18°C° 0.4 mm 2 mps 679 mmHg 96%
    05:00 +18°C° 0.4 mm 3 mps 679 mmHg 96%
    06:00 +17°C° 0.4 mm 3 mps 679 mmHg 96%
    07:00 +17°C° 0.3 mm 3 mps 680 mmHg 95%
    08:00 +17°C° 0.3 mm 3 mps 680 mmHg 95%
    09:00 +16°C° 0.3 mm 3 mps 680 mmHg 95%
    10:00 +17°C° 0.2 mm 3 mps 681 mmHg 91%
    11:00 +18°C° 0.2 mm 2 mps 681 mmHg 87%
    12:00 +19°C° 0.2 mm 2 mps 681 mmHg 84%
    13:00 +19°C° 0.1 mm 2 mps 680 mmHg 84%
    14:00 +19°C° 0.1 mm 2 mps 680 mmHg 84%
    15:00 +19°C° 0.1 mm 2 mps 679 mmHg 85%
    16:00 +18°C° 0 mm 2 mps 679 mmHg 84%
    17:00 +18°C° 0 mm 3 mps 679 mmHg 84%
    18:00 +18°C° 0 mm 3 mps 679 mmHg 84%
    19:00 +17°C° 0 mm 3 mps 680 mmHg 86%
    20:00 +16°C° 0 mm 3 mps 680 mmHg 87%
    21:00 +14°C° 0 mm 3 mps 681 mmHg 89%
    22:00 +14°C° 0 mm 3 mps 681 mmHg 89%
    23:00 +14°C° 0 mm 3 mps 681 mmHg 89%

    20 November, Tuesday

    Time Temperature Precipitation Wind Pressure Humidity
    00:00 +15°C° 0 mm 2 mps 681 mmHg 89%
    01:00 +15°C° 0 mm 2 mps 681 mmHg 90%
    02:00 +14°C° 0 mm 2 mps 680 mmHg 92%
    03:00 +14°C° 0 mm 2 mps 680 mmHg 94%
    04:00 +14°C° 0 mm 2 mps 680 mmHg 93%
    05:00 +14°C° 0 mm 2 mps 680 mmHg 92%
    06:00 +14°C° 0 mm 2 mps 681 mmHg 91%
    07:00 +16°C° 0 mm 2 mps 681 mmHg 84%
    08:00 +18°C° 0 mm 2 mps 682 mmHg 77%
    09:00 +19°C° 0 mm 3 mps 682 mmHg 70%
    10:00 +21°C° 0 mm 3 mps 683 mmHg 64%
    11:00 +24°C° 0 mm 3 mps 683 mmHg 59%
    12:00 +26°C° 0 mm 3 mps 683 mmHg 53%
    13:00 +26°C° 0 mm 3 mps 682 mmHg 52%
    14:00 +26°C° 0 mm 3 mps 682 mmHg 52%
    15:00 +27°C° 0 mm 3 mps 681 mmHg 51%
    16:00 +25°C° 0 mm 3 mps 681 mmHg 57%
    17:00 +24°C° 0 mm 3 mps 681 mmHg 63%
    18:00 +22°C° 0 mm 3 mps 681 mmHg 68%
    19:00 +20°C° 0 mm 3 mps 681 mmHg 74%
    20:00 +18°C° 0 mm 3 mps 682 mmHg 80%
    21:00 +16°C° 0 mm 3 mps 682 mmHg 86%
    22:00 +14°C° 0 mm 3 mps 682 mmHg 89%
    23:00 +14°C° 0 mm 2 mps 682 mmHg 91%

    21 November, Wednesday

    Time Temperature Precipitation Wind Pressure Humidity
    00:00 +13°C° 0 mm 2 mps 682 mmHg 93%
    01:00 +13°C° 0 mm 2 mps 681 mmHg 94%
    02:00 +13°C° 0 mm 2 mps 681 mmHg 95%
    03:00 +12°C° 0 mm 2 mps 680 mmHg 95%
    04:00 +13°C° 0 mm 2 mps 681 mmHg 94%
    05:00 +13°C° 0 mm 2 mps 681 mmHg 94%
    06:00 +13°C° 0 mm 2 mps 681 mmHg 93%
    07:00 +15°C° 0 mm 2 mps 682 mmHg 87%
    08:00 +17°C° 0 mm 2 mps 682 mmHg 81%
    09:00 +19°C° 0 mm 2 mps 683 mmHg 75%
    10:00 +20°C° 0 mm 2 mps 683 mmHg 71%
    11:00 +23°C° 0 mm 2 mps 683 mmHg 67%
    12:00 +25°C° 0 mm 2 mps 683 mmHg 63%
    13:00 +25°C° 0 mm 2 mps 682 mmHg 63%
    14:00 +25°C° 0 mm 2 mps 682 mmHg 64%
    15:00 +25°C° 0 mm 3 mps 681 mmHg 65%
    16:00 +24°C° 0.1 mm 3 mps 681 mmHg 69%
    17:00 +22°C° 0.1 mm 3 mps 681 mmHg 73%
    18:00 +21°C° 0.1 mm 3 mps 681 mmHg 76%
    19:00 +20°C° 0 mm 3 mps 681 mmHg 81%
    20:00 +19°C° 0 mm 2 mps 681 mmHg 85%
    21:00 +17°C° 0 mm 2 mps 681 mmHg 90%
    22:00 +17°C° 0 mm 2 mps 681 mmHg 91%
    23:00 +17°C° 0 mm 2 mps 681 mmHg 92%

    22 November, Thursday

    Time Temperature Precipitation Wind Pressure Humidity
    00:00 +17°C° 0 mm 2 mps 681 mmHg 93%
    01:00 +17°C° 0 mm 2 mps 680 mmHg 93%
    02:00 +17°C° 0 mm 2 mps 680 mmHg 94%
    03:00 +16°C° 0 mm 1 mps 679 mmHg 95%
    04:00 +18°C° 0 mm 1 mps 680 mmHg 94%
    05:00 +18°C° 0 mm 1 mps 680 mmHg 94%
    06:00 +18°C° 0 mm 1 mps 680 mmHg 94%
    07:00 +19°C° 0 mm 1 mps 680 mmHg 88%
    08:00 +20°C° 0 mm 2 mps 681 mmHg 83%
    09:00 +21°C° 0 mm 2 mps 681 mmHg 78%
    10:00 +23°C° 0.2 mm 2 mps 681 mmHg 74%
    11:00 +24°C° 0.2 mm 2 mps 681 mmHg 71%
    12:00 +25°C° 0.2 mm 2 mps 681 mmHg 68%
    13:00 +25°C° 0.4 mm 2 mps 680 mmHg 68%
    14:00 +26°C° 0.4 mm 2 mps 680 mmHg 69%
    15:00 +26°C° 0.4 mm 2 mps 679 mmHg 69%
    16:00 +25°C° 0.2 mm 1 mps 679 mmHg 72%
    17:00 +25°C° 0.2 mm 1 mps 679 mmHg 75%
    18:00 +24°C° 0.2 mm 1 mps 679 mmHg 78%
    19:00 +22°C° 0 mm 1 mps 679 mmHg 84%
    20:00 +21°C° 0 mm 1 mps 679 mmHg 89%
    21:00 +19°C° 0 mm 1 mps 679 mmHg 95%
    22:00 +19°C° 0 mm 1 mps 679 mmHg 96%
    23:00 +19°C° 0 mm 1 mps 679 mmHg 97%
    Show more